Flag for Italy

Past Weather in Roman Catholic Archidiocese of Milan, Italy — Yesterday and Last 2 Weeks

Currently: 32 °F. Ice fog. (Weather station: Milan / Linate, Italy). See more current weather

Past Weather in Roman Catholic Archidiocese of Milan — Graph

°F

Roman Catholic Archidiocese of Milan Temperature Yesterday

Maximum temperature yesterday: 43 °F (at 1:50 pm)
Minimum temperature yesterday: 32 °F (at 5:20 am)
Average temperature yesterday: 38 °F

High & Low Weather Summary for the Past Weeks

 TemperatureHumidityPressure
High61 °F (Nov 18, 1:50 pm)100% (Nov 16, 6:20 am)30.39 "Hg (Nov 16, 6:20 am)
Low32 °F (Nov 21, 4:50 am)45% (Nov 24, 3:20 pm)29.33 "Hg (Nov 22, 12:20 pm)
Average44 °F89%29.88 "Hg
* Reported Nov 16 6:20 am — Dec 1 6:20 am, Roman Catholic Archidiocese of Milan. Weather by CustomWeather, © 2022

Note: Actual official high and low records may vary slightly from our data, if they occured in-between our weather recording intervals... More about our weather records

Roman Catholic Archidiocese of Milan Weather History for the Previous 24 Hours

Scroll right to see more
 ConditionsComfort  
Time TempWeatherWind HumidityBarometerVisibility
6:20 am
Thu, Dec 1
32 °FIce fog.2 mph100%30.07 "Hg0 mi
5:50 am32 °FLight freezing rain. Passing clouds.2 mph100%30.07 "Hg0 mi
5:20 am32 °FFog.2 mph100%30.07 "Hg0 mi
4:50 am32 °FFog.2 mph100%30.07 "Hg0 mi
4:20 am32 °FFog.2 mph100%30.07 "Hg0 mi
3:50 am32 °FFog.2 mph100%30.09 "Hg0 mi
3:20 am32 °FFog.2 mph100%30.09 "Hg0 mi
2:50 am32 °FFog.2 mph100%30.09 "Hg0 mi
2:20 am34 °FFog.3 mph100%30.07 "Hg0 mi
1:50 am34 °FFog.2 mph100%30.07 "Hg0 mi
12:20 am36 °FClear.1 mph100%30.09 "Hg10 mi
11:50 pm
Wed, Nov 30
37 °FClear.3 mph100%30.09 "Hg10 mi
11:20 pm37 °FClear.1 mph100%30.09 "Hg10 mi
10:50 pm37 °FClear.2 mph100%30.07 "Hg10 mi
10:20 pm37 °FClear.2 mph100%30.07 "Hg10 mi
9:50 pm37 °FClear.2 mph100%30.07 "Hg10 mi
9:20 pm37 °FClear.2 mph100%30.07 "Hg10 mi
8:50 pm37 °FClear.2 mph100%30.07 "Hg10 mi
8:20 pm39 °FClear.2 mph93%30.07 "Hg10 mi
7:50 pm41 °FClear.2 mph87%30.07 "Hg10 mi
7:20 pm43 °FPassing clouds.3 mph81%30.07 "HgN/A
6:50 pm41 °FClear.3 mph87%30.07 "Hg10 mi
6:20 pm37 °FClear.3 mph93%30.07 "Hg10 mi
5:50 pm41 °FClear.3 mph87%30.07 "Hg10 mi
5:20 pm39 °FClear.3 mph93%30.07 "Hg5 mi
4:50 pm41 °FFog.5 mph87%30.07 "Hg3 mi
4:20 pm43 °FFog.6 mph87%30.07 "Hg3 mi
3:50 pm43 °FFog.6 mph93%30.07 "Hg3 mi
3:20 pm43 °FFog.3 mph93%30.07 "Hg2 mi
2:50 pm43 °FFog.3 mph100%30.07 "Hg3 mi
2:20 pm43 °FFog.3 mph93%30.07 "Hg3 mi
1:50 pm43 °FFog.2 mph93%30.07 "Hg3 mi
1:20 pm41 °FFog.3 mph100%30.07 "Hg2 mi
12:50 pm41 °FFog.2 mph100%30.09 "Hg2 mi
12:20 pm41 °FFog.5 mph100%30.09 "Hg2 mi
11:50 am41 °FFog.2 mph100%30.09 "Hg2 mi
11:20 am39 °FFog.3 mph100%30.09 "Hg2 mi
10:50 am39 °FFog.5 mph100%30.09 "Hg2 mi
10:20 am41 °FFog.5 mph100%30.09 "Hg2 mi
9:20 am39 °FFog.2 mph100%30.07 "Hg2 mi
8:50 am36 °FFog.1 mph100%30.07 "Hg2 mi
8:20 am36 °FFog.1 mph100%30.07 "Hg1 mi
7:50 am32 °FFog.1 mph100%30.07 "Hg1 mi
7:20 am34 °FFog.1 mph100%30.04 "Hg0 mi
Weather by CustomWeather, © 2022

See weather overview